Location: Worth Mountain WMA
(34.9569°N, 81.4819°W)
Time: 00:58:55
(UTC-05:00)

YAOGAN 6 - Pass Details

Date: 18 August 2017
Orbit: 467 x 509 km, 97.1° (Epoch: 24 November)

Event Time Altitude Azimuth Distance (km) Brightness Sun altitude
Exits shadow 20:58:50 14° 99° (E) 1,424 4.3 -10.2°
Maximum altitude 21:00:15 17° 71° (ENE) 1,274 4.3 -10.4°
Drops below altitude 10° 21:02:36 10° 29° (NNE) 1,646 5.2 -10.9°
Sets 21:05:10 0° 9° (N) 2,522 6.4 -11.4°
